Regional Weather Roundup
Issued by NWS

Home | Current Version | Previous Version | Graphics & Text | Print | Product List | Glossary Off
Versions: 1 2 3 4 5 6 7 8 9 10 11 12 13 14 15 16 17 18 19 20 21 22 23 24 25 26 27 28 29 30 31 32 33 34 35 36 37 38 39 40 41 42 43 44 45 46 47 48 49 50

000
ASUS43 KMKX 231111
RWRWI

WISCONSIN REGIONAL WEATHER ROUNDUP
NATIONAL WEATHER SERVICE MILWAUKEE/SULLIVAN WI
600 AM CDT WED APR 23 2014

NOTE: "FAIR" INDICATES FEW OR NO CLOUDS BELOW 12,000 FEET WITH NO
SIGNIFICANT WEATHER AND/OR OBSTRUCTIONS TO VISIBILITY.

WIZ001-002-006>008-014>016-023>028-231200-
NORTHWEST WISCONSIN

CITY           SKY/WX    TMP DP  RH WIND       PRES   REMARKS
SUPERIOR ARPT  PTCLDY    29  28  92 CALM      30.14S
ASHLAND        CLEAR     24  23  96 CALM      30.16S
HAYWARD        PTCLDY    25  22  88 NE5       30.13S WCI  19
SIREN          CLOUDY    29  24  82 CALM      30.11S
RICE LAKE      MOCLDY    29  27  92 CALM      30.14R
LADYSMITH      PTCLDY    32  26  78 E6        30.14F WCI  26
EAU CLAIRE     CLOUDY    31  26  82 CALM      30.13R
MENOMONIE      CLOUDY    34  27  76 CALM      30.13S
NEW RICHMOND   CLOUDY    37  28  70 CALM      30.11S
OSCEOLA        CLOUDY    38  28  67 SE6       30.13S WCI  33
$$

WIZ003>005-009-010-017-018-231200-
NORTH CENTRAL WISCONSIN

CITY           SKY/WX    TMP DP  RH WIND       PRES   REMARKS
WOODRUFF       CLEAR     22  13  69 CALM      30.14R
RHINELANDER    CLEAR     20  19  96 W3        30.15R
EAGLE RIVER    CLEAR     21  20  98 CALM      30.14R
LAND O LAKES   CLEAR     18  17  93 CALM      30.14S
PHILLIPS       CLOUDY    24  22  93 CALM      30.13S
TOMAHAWK       CLEAR     21  19  94 CALM      30.14S
MEDFORD        CLEAR     28  25  89 E6        30.13F WCI  21
MERRILL        CLEAR     22  21  96 CALM      30.15R
$$

WIZ029-030-035-036-043>047-231200-
CENTRAL WISCONSIN

CITY           SKY/WX    TMP DP  RH WIND       PRES   REMARKS
WAUSAU         CLEAR     27  24  89 E3        30.14S
MOSINEE        CLEAR     34  27  75 NE3       30.15S
MARSHFIELD     CLEAR     31  25  78 NE3       30.13F
STEVENS POINT  CLEAR     24  21  88 NE3       30.16S
WAUPACA        CLEAR     30  27  86 CALM      30.17S
WAUTOMA        CLEAR     27  25  92 CALM      30.17R
WISC RAPIDS    CLEAR     26  24  92 CALM      30.16S
CAMP DOUGLAS   PTCLDY    24  24 100 CALM      30.15R
$$

WIZ011>013-019>022-031-037>040-048>050-231200-
NORTHEAST WISCONSIN

CITY           SKY/WX    TMP DP  RH WIND       PRES   REMARKS
ANTIGO         CLEAR     26  25  95 CALM      30.15R
STURGEON BAY   CLEAR     30  25  80 CALM      30.16R
GREEN BAY      CLEAR     30  27  88 NW3       30.17R
MANITOWOC      CLEAR     32  26  78 NW5       30.16S WCI  27
APPLETON       PTCLDY    30  25  80 N6        30.16R WCI  24
CLINTONVILLE   CLEAR     28  27  93 CALM      30.16S
OSHKOSH        CLEAR     31  23  72 N5        30.16S WCI  26
$$

WIZ032>034-041-042-053>061-231200-
SOUTHWEST WISCONSIN

CITY           SKY/WX    TMP DP  RH WIND       PRES   REMARKS
LA CROSSE      CLEAR     37  27  67 E6        30.14R WCI  32
SPARTA         PTCLDY    25  22  91 CALM      30.15R
VIROQUA        FAIR      35  27  74 E7        30.13R WCI  29
BOSCOBEL       CLEAR     30  27  88 CALM      30.16R
PRAIRIE DU CHI PTCLDY    39  31  72 CALM      30.14R
PLATTEVILLE    FAIR      34  27  75 CALM      30.15S
$$

WIZ056-057-062-063-064-067-068-231200-
SOUTH CENTRAL WISCONSIN

CITY           SKY/WX    TMP DP  RH WIND       PRES   REMARKS
BARABOO/DELLS  CLEAR     31  25  79 CALM      30.15R
LONE ROCK      CLEAR     30  26  85 CALM      30.16R
WATERTOWN      CLEAR     30  27  91 CALM      30.16R
MADISON        PTCLDY    30  25  81 NE3       30.16S
MIDDLETON      FAIR      34  28  80 E6        30.15R WCI  29
MONROE         CLEAR     33  32  97 E5        30.14R WCI  28
JANESVILLE     CLEAR     32  28  86 CALM      30.15R
$$

WIZ051-052-058>065-066-070>072-231200-
SOUTHEAST WISCONSIN

CITY           SKY/WX    TMP DP  RH WIND       PRES   REMARKS
MILWAUKEE      PTCLDY    33  28  81 N7        30.15S WCI  27
WAUKESHA       CLEAR     28  27  93 CALM      30.15S
MILWAUKEE/TIMM CLEAR     32  28  86 N8        30.15S WCI  25
RACINE         CLEAR     35  28  75 N10       30.15F WCI  27
BURLINGTON     CLEAR     24  23  98 CALM      30.16R
KENOSHA        CLEAR     29  26  89 W5        30.15R WCI  24
FOND DU LAC    CLEAR     28  25  88 CALM      30.16R
SHEBOYGAN      CLEAR     29  24  82 NW3       30.17R
WEST BEND      CLEAR     30  27  86 CALM      30.15S
JUNEAU         CLEAR     31  28  86 CALM      30.16R
$$

LSZ147-162-231200-
LAKE SUPERIOR

STATION/POSITION TIME  TEMP    WIND        PRES    WAVE
                       AIR SEA DIR/SP/G            HT/PER
                 (UTC) (F)     (DEG/KT/KT) (MB)    (FT/S)
DEVILS ISLAND    1100   33     110/  3/  3 1022.1R
PORT WING        1000   26      CALM  /  3 1020.7
SAXON HARBOR     1000             CALM     1020.3F
$$

LMZ867-665-643>646-231200-
LAKE MICHIGAN

STATION/POSITION TIME  TEMP    WIND        PRES    WAVE
                       AIR SEA DIR/SP/G            HT/PER
                 (UTC) (F)     (DEG/KT/KT) (MB)    (FT/S)
NORTHPORT PIER   1000   30     300/  6/  9 1020.7R
SISTER BAY       1009   29      10/  6/  7   N/A
KEWAUNEE LAKESHO 1000   29     310/  5/  7 1021.4R
SHEBOYGAN LAKESH 1100   36     310/  7/  9 1022.4R
PORT WASHINGTON  1040   34     330/  4/  6 1022.0R
MILWAUKEE LAKESH 1000   36     340/  5/  7   N/A
KENOSHA   LAKESH 1100   36     350/  5/ 10   N/A
$$

TC  - TEMPERATURE IN CELSIUS
VSB - VISIBILITY IN STATUTE MILES
WCI - WIND CHILL INDEX
HX  - HEAT INDEX




USA.gov is the U.S. government's official web portal to all federal, state and local government web resources and services.